Weather Roundup
Issued by NWS

Home | Current Version | Previous Version | Graphics & Text | Print | Product List | Glossary Off
Versions: 1 2 3 4 5 6 7 8 9 10 11 12 13 14 15 16 17 18 19 20 21 22 23 24 25 26 27 28 29 30 31 32 33 34 35 36 37 38 39 40 41 42 43 44 45 46 47 48 49 50

000
NZUS93 KARX 312110
HRRWXR

CURRENT HOURLY OBSERVATIONS ACROSS
MUCH OF THE UPPER MISSISSIPPI VALLEY
NATIONAL WEATHER SERVICE LA CROSSE WI
400 PM CDT THU JUL 31 2014


...SOUTHEAST MINNESOTA...


CITY           SKY/WX    TMP DP  RH WIND       PRES   REMARKS
ROCHESTER      MOSUNNY   79  57  46 W8        30.06S
ROCHESTER/MAYO FAIR      78  50  37 W9        30.04S
WINONA         SUNNY     79  52  38 NW7       30.02S
AUSTIN         SUNNY     79  52  38 W7        30.05S
ALBERT LEA     SUNNY     81  52  36 SW6       30.05F
DODGE CENTER   MOSUNNY   81  54  39 W12G17    30.05S
PRESTON        MOSUNNY   76  61  60 W9        30.06S
OWATONNA       MOSUNNY   81  54  39 W7        30.05S
FARIBAULT      SUNNY     84  46  26 W8        30.04S
$$

...ELSEWHERE IN MINNESOTA...


CITY           SKY/WX    TMP DP  RH WIND       PRES   REMARKS
MINNEAPOLIS    MOSUNNY   83  50  31 NW8       30.01F
INTNL FALLS    SUNNY     77  55  46 NE8       29.98F
DULUTH         MOSUNNY   80  53  39 NW10      29.98S
RED WING       MOSUNNY   84  52  32 W9        30.00S
REDWOOD FALLS  MOSUNNY   83  49  30 W7        30.04S
MANKATO        SUNNY     81  52  36 W5        30.04S
WORTHINGTON    MOSUNNY   79  57  47 SW5       30.08S
FAIRMONT       PTSUNNY   81  54  39 N5        30.05F
$$

...SOUTHWEST WISCONSIN...


CITY           SKY/WX    TMP DP  RH WIND       PRES   REMARKS
LA CROSSE      SUNNY     82  55  39 W10       30.00F
PRAIRIE DU CHI MOSUNNY   80  50  34 W8        30.02S
BOSCOBEL       MOSUNNY   84  58  40 NW9       30.02F
LONE ROCK      MOSUNNY   83  59  44 NW8       30.01F
PLATTEVILLE    MOSUNNY   80  58  46 W13       30.05S
FORT MC COY    MOSUNNY   80  56  44 W7        30.02S
CAMP DOUGLAS   MOSUNNY   79  61  53 W13       30.00F
VIROQUA        FAIR      78  56  46 W7        30.04S
WIS DELLS      MOSUNNY   81  54  38 NW10      30.00F
$$

...ELSEWHERE IN WISCONSIN...


CITY           SKY/WX    TMP DP  RH WIND       PRES   REMARKS
MILWAUKEE      PTSUNNY   83  54  36 W10       29.99F
MADISON        MOSUNNY   82  58  43 W13       30.01S
GREEN BAY      MOSUNNY   78  60  53 W3        29.95S
EAU CLAIRE     SUNNY     82  56  40 W12       29.99S
BLACK RVR FLS  FAIR      82  55  39 W10G16    30.00F
MEDFORD        MOSUNNY   75  62  63 W3        29.99F
WAUSAU         MOSUNNY   76  60  57 N9        29.96S
WIS RAPIDS     MOSUNNY   81  58  45 W15G21    29.99F
MARSHFIELD     MOSUNNY   76  62  62 W8        29.99F
RICE LAKE      PTSUNNY   77  60  55 W7        30.00S
$$

...NORTHEAST IOWA...


CITY           SKY/WX    TMP DP  RH WIND       PRES   REMARKS
WATERLOO       MOSUNNY   81  55  40 W8        30.04F
DUBUQUE        MOSUNNY   78  58  49 W10       30.05F
DECORAH        SUNNY     75  57  53 CALM      30.04S
MASON CITY     MOSUNNY   80  56  43 W10       30.07F
CHARLES CITY   PTSUNNY   75  61  60 NW6       30.06S
OELWEIN        MOSUNNY   79  57  47 W9        30.06S
$$

...ELSEWHERE IN IOWA...


CITY           SKY/WX    TMP DP  RH WIND       PRES   REMARKS
DES MOINES     MOSUNNY   83  56  39 W8        30.05F
IOWA CITY      SUNNY     79  60  52 W7        30.06F
FORT DODGE     MOSUNNY   79  57  47 SW7       30.07F
MARSHALLTOWN   MOSUNNY   78  59  51 W6        30.06F
CEDAR RAPIDS   MOSUNNY   79  60  52 W8        30.05F
$$

...NORTHERN ILLINOIS...


CITY           SKY/WX    TMP DP  RH WIND       PRES   REMARKS
CHICAGO-OHARE  MOSUNNY   83  54  36 W15G23    30.02S
DUPAGE         PTSUNNY   82  58  43 W13       30.03S
CHICAGO-MIDWAY MOSUNNY   84  57  39 W16G22    30.02S
MOLINE         MOSUNNY   81  58  45 SW8       30.04F
ROCKFORD       MOSUNNY   82  58  43 W12       30.05S
STERLING       MOSUNNY   82  61  47 W13G18    30.05S
PEORIA         MOSUNNY   83  58  42 SW8       30.06F
$$

NOTE: "FAIR" INDICATES FEW OR NO CLOUDS BELOW 12,000 FEET WITH NO
SIGNIFICANT WEATHER AND/OR OBSTRUCTIONS TO VISIBILITY. WIND
SPEEDS ARE IN MILES-PER-HOUR.



USA.gov is the U.S. government's official web portal to all federal, state and local government web resources and services.